SCP
0 0 0 0 0 0 0 0 0 0 0 0 0 0 0 0 0 0 0 0 0 0 0 0 0 0 0 0 0 0 0 0 0 0 0 0 0 0
0 0 0 0 0 0 0 0 0 0 0 0 0 0 0 0 0 0 0 0 0 0 0 0 0 0 0 0 0 0 0 0 0 0 0 0 0 0
0 0 0 0 0 0 0 0 0 0 0 0 0 0 0 0 0 0 0 0 0 0 0 0 0 0 0 0 0 0 0 0 0 0 0 0 0 0
0 0 0 0 0 0 0 0 0 0 0 0 0 0 0 0 0 0 0 0 0 0 0 0 0 0 0 0 0 0 0 0 0 0 0 0 0 0
0 0 0 0 0 0 0 0 0 0 0 0 0 0 0 0 0 0 0 0 0 0 0 0 0 0 0 0 0 0 0 0 0 0 0 0 0 0
0 0 0 0 0 0 0 0 0 0 0 0 0 0 0 0 0 0 0 0 0 0 0 0 0 0 0 0 0 0 0 0 0 0 0 0 0 0
0 0 0 0 0 0 0 0 0 0 0 0 0 0 0 0 0 0 0 0 0 0 0 0 0 0 0 0 0 0 0 0 0 0 0 0 0 0
0 0 0 0 0 0 0 0 0 0 0 0 0 0 0 0 0 0 0 0 0 0 0 0 0 0 0 0 0 0 0 0 0 0 0 0 0 0
0 0 0 0 0 0 0 0 0 0 0 0 0 0 0 0 0 0 0 0 0 0 0 0 0 0 0 0 0 0 0 0 0 0 0 0 0 0
0 1 0 0 0 0 0 0 0 0 0 0 0 0 0 0 0 0 0 0 0 0 0 0 0 0 0 0 0 0 0 0 0 0 0 0 0 0
0 0 0 0 0 0 0 0 0 0 0 0 0 0 0 0 0 0 0 0 0 0 0 0 0 0 0 0 0 0 0 0 0 0 0 0 0 0
0 0 0 0 0 0 0 0 0 0 0 0 0 0 0 0 0 0 0 0 0 0 0 0 0 0 0 0 0 0 0 0 0 0 0 0 0 0
0 0 0 0 0 0 0 0 0 0 0 0 0 0 0 0 0 0 0 0 0 0 0 0 0 0 0 0 0 0 0 0 0 0 0 0 0 0
0 0 0 0 0 0 0 0 0 0 0 0 0 0 0 0 0 0 0 0 0 0 0 0 0 0 0 0 0 0 0 0 0 0 0 0 0 0
0 0 0 0 0 0 0 0 0 0 0 0 0 0 0 0 0 0 0 0 0 0 0 0 0 0 0 0 0 0 0 0 0 0 0 0 0 0
0 0 0 0 0 0 0 0 0 0 0 0 0 0 0 0 0 0 0 0 0 0 0 0 0 0 0 0 0 0 0 0 0 0 0 0 0 0
0 0 0 0 0 0 0 0 0 0 0 0 0 0 0 0 0 0 0 0 0 0 0 0 0 0 0 0 0 0 0 0 0 0 0 0 0 0
0 0 0 0 0 0 0 0 0 0 0 0 0 0 0 0 0 0 0 0 0 0 0 0 0 0 0 0 0 0 0 0 0 0 0 0 0 0
0 0 0 0 0 0 0 0 0 0 0 0 0 0 0 0 0 0 0 0 0 0 0 0 0 0 0 0 0 0 0 0 0 0 0 0 0 0
0 0 0 0 0 0 0 0 0 0 0 0 0 0 0 0 0 0 0 0 0 0 0 0 0 0 0 0 0 0 0 0 0 0 0 0 0 0
0 0 0 0 0 0 0 0 0 0 0 0 0 0 0 0 0 0 0 0 0 0 0 0 0 0 0 0 0 0 0 0 0 0 0 0 0 0
0 0 0 0 0 0 0 0 0 0 0 0 0 0 0 0 0 0 0 0 0 0 0 0 0 0 0 0 0 0 0 0 0 0 0 0 0 0
0 0 0 0 0 0 0 0 0 0 0 0 0 0 0 0 0 0 0 0 0 0 0 0 0 0 0 0 0 0 0 0 0 0 0 0 0 0
Wind_Speed
4 3 3 2 3 3 3 4 4 4 3 1 1 2 2 1 2 1 0 3 3 2 2 2 2 2 3 4 5 6 6 6 7 7 7 7 8 9
3 3 3 3 2 3 3 3 3 4 4 2 2 2 3 2 1 1 0 4 3 2 2 2 1 1 2 2 3 3 4 4 4 5 5 6 6 7
2 2 3 3 3 2 2 2 2 2 3 3 2 2 2 3 2 2 2 1 2 3 3 2 1 1 1 1 1 1 1 2 2 3 3 4 4 5
2 2 3 2 2 3 2 2 2 2 3 3 2 2 2 2 3 3 1 1 1 5 4 3 3 3 2 2 1 0 1 1 2 2 2 3 3 4
1 1 2 2 2 2 2 2 1 1 2 2 2 2 2 2 2 2 1 1 0 3 5 6 4 3 2 2 1 0 1 1 1 1 1 1 2 3
1 1 1 2 2 2 1 1 1 1 1 2 2 1 1 2 2 2 1 0 1 1 1 3 4 5 3 2 1 0 1 1 1 1 1 1 2 2
1 2 3 4 6 4 3 2 1 2 1 1 1 1 2 2 3 3 2 1 0 1 1 0 1 1 2 2 1 1 0 1 1 1 1 1 1 1
2 1 2 3 4 4 4 5 4 2 2 2 2 2 2 3 3 3 2 2 1 1 2 1 1 1 1 1 2 1 0 0 1 1 1 1 1 1
2 1 1 3 2 2 3 3 4 4 2 2 3 3 3 4 4 4 3 3 2 2 2 2 1 2 1 3 4 2 2 1 1 0 0 1 1 2
2 2 2 3 4 2 2 3 4 4 3 2 3 3 4 4 4 3 3 2 0 1 3 3 2 2 2 1 4 4 3 2 1 0 0 1 2 3
3 4 3 3 5 4 1 2 3 3 4 4 3 2 3 4 5 3 3 3 2 2 3 3 2 3 2 1 2 4 3 2 2 1 2 2 3 4
3 4 6 5 5 4 1 2 2 2 3 2 2 1 2 3 2 4 4 4 3 2 3 3 3 3 2 1 2 1 1 2 3 3 3 3 3 4
3 3 4 5 5 5 3 3 2 3 1 1 2 2 3 3 4 4 5 4 4 4 4 4 4 3 3 3 2 2 2 2 2 2 3 2 3 4
3 3 4 5 6 5 4 4 3 3 1 2 3 3 4 4 4 4 5 4 4 3 4 4 4 4 4 4 3 2 3 3 3 3 2 2 3 4
4 6 5 4 5 5 5 3 2 2 3 3 3 3 3 3 3 2 3 2 2 2 2 4 4 4 4 4 4 3 3 3 3 3 3 3 3 3
4 5 4 3 3 4 3 2 3 4 3 3 3 3 3 3 3 3 3 3 3 3 3 4 4 4 4 4 4 3 4 4 4 4 4 4 3 3
3 3 3 3 3 3 3 4 3 3 3 3 3 3 3 3 3 3 3 3 4 4 4 3 3 3 3 4 3 4 4 4 4 5 5 4 3 3
2 3 3 3 3 3 3 3 3 3 3 2 3 3 3 3 3 3 3 4 4 4 4 4 4 3 2 2 4 5 4 4 4 4 5 4 3 3
3 3 3 3 3 2 2 2 3 3 3 3 3 3 3 3 3 4 4 4 4 4 4 4 4 5 5 4 3 4 5 5 5 4 4 4 4 4
3 3 3 3 2 2 3 3 3 3 3 3 3 3 3 3 3 3 3 5 4 4 4 4 5 5 6 5 5 4 4 5 5 5 5 5 4 2
3 3 3 3 3 3 3 3 3 3 3 3 3 3 3 3 3 3 3 3 4 4 4 4 5 5 5 4 4 4 4 3 4 5 6 5 5 4
2 2 2 3 2 2 2 3 2 3 3 3 3 3 3 3 3 4 4 4 4 4 5 4 4 4 4 4 4 5 5 4 3 2 2 3 4 5
2 2 2 2 2 2 2 3 3 3 3 3 3 3 3 3 4 4 4 4 4 5 5 4 4 4 5 5 5 5 5 5 4 4 2 2 3 4
Wind_Direction
253 243 253 263 267 276 276 276 279 282 283 291 314 360 330 347 352 310 314 108 140 167 189 208 225 229 229 227 227 230 231 236 244 247 246 245 245 244
258 273 271 271 274 274 275 272 272 277 286 317 316 334 339 316 28 293 184 115 117 145 156 161 177 201 212 217 223 226 227 230 237 242 245 246 247 248
268 266 272 292 287 279 272 266 266 265 266 287 312 330 328 314 310 284 242 225 135 129 134 131 125 108 107 128 167 210 228 228 230 238 244 246 248 251
290 303 292 284 284 291 284 276 276 269 261 272 295 308 306 299 296 283 277 242 124 118 134 126 102 90 81 81 82 84 237 227 227 237 249 255 257 259
304 324 319 318 309 318 293 282 273 258 256 256 273 306 304 318 308 302 335 331 281 135 145 136 123 117 100 79 65 316 253 242 240 216 235 260 271 275
38 14 352 338 327 312 305 320 323 299 266 263 280 301 310 328 316 315 317 334 321 335 87 127 142 148 130 98 53 343 260 250 247 240 243 258 274 282
97 73 60 50 33 12 353 354 343 313 309 292 297 308 339 328 322 315 314 310 30 0 333 109 162 171 157 156 177 352 280 219 209 207 210 227 261 279
127 112 114 97 79 70 49 35 15 346 341 331 319 332 338 333 329 312 322 308 305 13 305 298 323 331 346 49 70 92 134 182 179 180 192 203 232 247
122 125 98 83 86 96 115 117 77 52 19 328 354 349 352 354 332 321 332 327 341 357 306 300 336 343 4 77 98 106 106 95 95 114 221 260 266 260
99 91 76 71 45 22 74 73 66 56 42 36 30 11 10 353 328 314 308 274 232 33 338 315 340 340 345 63 116 124 126 118 100 52 333 307 292 280
86 67 58 71 31 358 45 64 65 71 81 81 68 39 19 5 342 326 327 323 338 19 8 329 336 330 326 341 124 147 159 168 190 236 255 267 278 269
100 85 61 51 36 14 45 58 47 28 27 57 89 85 39 49 30 358 343 332 331 349 25 329 326 325 318 342 353 359 203 187 205 218 226 244 279 284
106 89 67 63 58 38 28 51 21 334 359 26 50 53 46 34 27 18 360 348 340 346 355 330 320 321 316 316 328 338 333 324 299 255 227 233 263 278
81 78 78 80 78 62 57 38 348 314 25 34 34 33 28 27 23 16 13 12 2 348 339 327 314 316 310 305 317 332 330 324 324 317 313 254 249 245
77 81 87 98 109 87 65 24 4 35 37 39 34 28 23 17 6 16 27 25 5 355 8 342 325 318 306 308 312 318 319 318 318 322 320 320 316 305
103 110 118 99 91 82 87 62 50 42 30 34 26 22 21 22 17 9 358 354 353 12 30 5 344 323 314 323 317 321 325 320 322 330 327 320 320 322
125 127 111 100 86 73 66 55 46 48 44 31 19 21 23 20 18 11 360 349 353 357 2 2 354 349 347 328 330 339 333 334 338 338 312 310 327 334
124 98 87 81 73 64 61 63 54 37 21 16 15 16 12 10 11 11 6 2 360 357 356 357 349 333 325 46 8 336 332 335 333 328 317 320 325 336
90 81 76 69 63 55 45 41 41 35 8 8 12 14 9 6 7 9 7 1 359 355 352 352 351 342 334 344 4 351 331 325 320 320 322 324 324 337
82 78 72 63 53 42 36 29 25 23 17 13 11 6 360 357 359 1 8 357 348 347 347 353 360 352 340 333 328 335 343 332 331 325 322 320 323 329
84 74 62 55 45 36 24 13 11 10 5 354 5 355 348 348 351 349 1 357 331 344 347 356 1 319 304 308 315 337 354 5 338 316 317 315 318 309
75 69 57 45 35 25 11 1 359 4 353 344 352 341 343 344 345 341 345 341 339 346 348 352 347 329 328 329 330 334 340 343 336 276 268 304 321 323
54 48 46 38 32 17 2 350 346 351 348 341 341 336 339 341 334 334 336 338 344 349 340 340 342 335 333 329 332 337 341 333 328 331 3 153 210 244